Weather History for KNUQ - April, 2014

Change the Weather History Date:

Saturday, April 12, 2014

  Actual Average Record
Temperature  
Mean Temperature 61 °F 59 °F  
Max Temperature 68 °F 68 °F 87 °F (2008)
Min Temperature 54 °F 49 °F 36 °F (1953)
Degree Days  
Heating Degree Days 4    
Month to date heating degree days 64  
Since 1 July heating degree days 1676  
Cooling Degree Days 0    
Month to date cooling degree days 7  
Year to date cooling degree days 11  
Growing Degree Days 10 (Base 50)    
Moisture  
Dew Point 48 °F    
Average Humidity 65    
Maximum Humidity 77    
Minimum Humidity 52    
Precipitation  
Precipitation 0.00 in 0.03 in 0.63 in (2012)
Month to date precipitation 0.58 0.45  
Year to date precipitation 4.90 8.53  
Since 1 July precipitation 6.16  
Sea Level Pressure  
Sea Level Pressure 29.92 in    
Wind  
Wind Speed 6 mph (NNE)    
Max Wind Speed 18 mph    
Max Gust Speed 23 mph    
Visibility 10 miles    
Events      
T = Trace of Precipitation, MM = Missing Value Source: NWS Daily Summary

Daily Weather History Graph

Daily Weather History Graph

Search for Another Location

Airport or City:

Trip Planner

Search our weather history database for the weather conditions in past years. The results will help you decide how hot, cold, wet, or windy it might be!

Date:

Astronomy

Apr. 12, 2014 Rise Set
Actual Time 6:37 AM PDT 7:40 PM PDT
Civil Twilight 6:10 AM PDT 8:07 PM PDT
Nautical Twilight 5:38 AM PDT 8:39 PM PDT
Astronomical Twilight 5:05 AM PDT 9:12 PM PDT
Moon 5:27 PM PDT (4/12) 5:04 AM PDT (4/12)
Length of Visible Light 13h 56m
Length of Day
13h 03m
Waxing Gibbous, 93% of the Moon is Illuminated
Apr 12
Waxing Gibbous
Apr 15
Full
Apr 22
Last Quarter
Apr 28
New
May 6
First Quarter

Hourly Weather History & Observations

Time (PDT) Temp. Dew Point Humidity Pressure Visibility Wind Dir Wind Speed Gust Speed Precip Events Conditions
12:56 AM 57.0 °F 50.0 °F 77% 29.93 in 10.0 mi ENE 3.5 mph - N/A   Overcast
1:56 AM 57.0 °F 48.9 °F 74% 29.92 in 10.0 mi ESE 6.9 mph - N/A   Overcast
2:56 AM 57.0 °F 48.0 °F 72% 29.91 in 10.0 mi SSE 4.6 mph - N/A   Overcast
3:56 AM 57.0 °F 48.0 °F 72% 29.90 in 10.0 mi ESE 3.5 mph - N/A   Overcast
4:56 AM 55.9 °F 46.9 °F 72% 29.90 in 10.0 mi Calm Calm - N/A   Overcast
5:56 AM 55.9 °F 46.9 °F 72% 29.90 in 10.0 mi SSE 4.6 mph - N/A   Overcast
6:56 AM 55.0 °F 46.0 °F 72% 29.91 in 10.0 mi SE 6.9 mph - N/A   Overcast
7:56 AM 55.0 °F 46.0 °F 72% 29.93 in 10.0 mi SE 3.5 mph - N/A   Overcast
8:56 AM 55.9 °F 46.0 °F 69% 29.94 in 10.0 mi ESE 4.6 mph - N/A   Overcast
9:56 AM 60.1 °F 46.9 °F 62% 29.94 in 10.0 mi Calm Calm - N/A   Mostly Cloudy
10:04 AM 59.0 °F 46.4 °F 63% 29.93 in 10.0 mi WNW 4.6 mph - N/A   Scattered Clouds
10:56 AM 63.0 °F 48.0 °F 58% 29.95 in 10.0 mi ENE 5.8 mph - N/A   Clear
11:56 AM 64.9 °F 46.0 °F 50% 29.93 in 10.0 mi West 5.8 mph - N/A   Clear
12:56 PM 66.0 °F 48.0 °F 52% 29.91 in 10.0 mi North 4.6 mph - N/A   Clear
1:56 PM 66.9 °F 48.9 °F 52% 29.91 in 10.0 mi NNW 13.8 mph - N/A   Clear
2:56 PM 66.0 °F 52.0 °F 60% 29.90 in 10.0 mi NNW 11.5 mph - N/A   Clear
3:56 PM 64.9 °F 51.1 °F 61% 29.89 in 10.0 mi North 15.0 mph - N/A   Clear
4:56 PM 64.9 °F 50.0 °F 58% 29.88 in 10.0 mi NNW 16.1 mph 23.0 mph N/A   Clear
5:56 PM 64.0 °F 48.9 °F 58% 29.89 in 10.0 mi North 16.1 mph - N/A   Clear
6:56 PM 61.0 °F 46.9 °F 60% 29.90 in 10.0 mi NW 8.1 mph - N/A   Clear
7:56 PM 57.0 °F 46.9 °F 69% 29.91 in 10.0 mi NNW 6.9 mph - N/A   Clear
8:56 PM 55.9 °F 46.9 °F 72% 29.94 in 10.0 mi NNW 3.5 mph - N/A   Clear
9:56 PM 55.9 °F 46.9 °F 72% 29.95 in 10.0 mi Calm Calm - N/A   Clear
10:52 PM 55.4 °F 48.2 °F 77% 29.95 in 10.0 mi Calm Calm - N/A   Mostly Cloudy
10:56 PM 55.9 °F 48.0 °F 75% 29.96 in 10.0 mi Calm Calm - N/A   Mostly Cloudy
11:56 PM 55.9 °F 46.9 °F 72% 29.98 in 10.0 mi WSW 4.6 mph - N/A   Overcast